Location: Frederickton
(49.4167°N, 54.3667°W)
Time: 10:37:56
(UTC+00:00)

ISS - Visible Passes

Search period start: 17 May 2022 00:00
Search period end: 27 May 2022 00:00
Orbit: 415 x 422 km, 51.6° (Epoch: 17 May)

Date Brightness Start Highest point End Pass type
(mag) Time Alt. Az. Time Alt. Az. Time Alt. Az.
17 May -3.8 01:11:16 10° WSW 01:14:38 85° NNW 01:18:00 10° ENE visible
17 May -3.1 02:48:16 10° WNW 02:51:36 56° N 02:53:27 23° ENE visible
17 May -1.8 04:25:08 10° WNW 04:26:21 20° WNW 04:26:21 20° WNW visible
18 May -3.9 00:23:23 10° WSW 00:26:44 74° SSE 00:30:06 10° ENE visible
18 May -3.1 02:00:19 10° W 02:03:39 56° N 02:06:53 10° ENE visible
18 May -3.1 03:37:14 10° WNW 03:39:46 48° WNW 03:39:46 48° WNW visible
19 May -3.2 01:12:20 10° W 01:15:40 61° N 01:19:00 10° ENE visible
19 May -3.5 02:49:19 10° WNW 02:52:40 69° NNE 02:53:16 53° ENE visible
20 May -3.5 00:24:21 10° W 00:27:42 70° NNW 00:31:03 10° ENE visible
20 May -3.3 02:01:22 10° WNW 02:04:42 60° N 02:06:47 20° E visible
20 May -2.0 03:38:12 10° WNW 03:39:41 23° W 03:39:41 23° W visible
21 May -3.1 01:13:22 10° WNW 01:16:41 56° N 01:20:00 10° E visible
21 May -3.7 02:50:14 10° WNW 02:53:14 65° W 02:53:14 65° W visible
22 May -3.1 00:25:21 10° W 00:28:40 57° N 00:31:59 10° ENE visible
22 May -3.8 02:02:16 10° WNW 02:05:38 83° NNE 02:06:46 38° E visible
22 May -1.2 03:39:18 10° W 03:39:40 12° W 03:39:40 12° W visible
23 May -3.5 01:14:16 10° WNW 01:17:38 68° NNE 01:20:19 15° E visible
23 May -2.5 02:51:09 10° W 02:53:13 29° WSW 02:53:13 29° WSW visible
24 May -3.2 00:26:15 10° WNW 00:29:35 60° N 00:32:54 10° E visible
24 May -3.7 02:03:05 10° WNW 02:06:24 56° SSW 02:06:47 52° S visible
25 May -3.9 01:15:02 10° WNW 01:18:24 78° SSW 01:20:20 23° ESE visible
25 May -1.4 02:52:21 10° W 02:53:15 14° WSW 02:53:15 14° WSW visible
26 May -3.7 00:27:00 10° WNW 00:30:22 81° NNE 00:33:43 10° ESE visible
26 May -2.6 02:04:00 10° W 02:06:50 27° SW 02:06:50 27° SW visible
